| time (UTC) | temp C | wind direction | speed KPH | gust KPH | rain 1hr cm | rain 24hr cm | rain mn cm | humidity % | barometer mb |
| 20260509090253 | 21 | 179 | 3.2 | 0.0 | 0.00 | 0.00 | 0.00 | 85 | |
| 20260509085232 | 21 | 37 | 12.9 | 0.0 | 0.00 | 0.00 | 0.00 | 84 | |
| 20260509084232 | 21 | 2 | 14.5 | 0.0 | 0.00 | 0.00 | 0.00 | 84 | |
| 20260509083232 | 21 | 2 | 14.5 | 0.0 | 0.00 | 0.00 | 0.00 | 84 | |
| 20260509082232 | 21 | 16 | 9.7 | 0.0 | 0.00 | 0.00 | 0.00 | 85 | |
| 20260509081232 | 21 | 44 | 6.4 | 0.0 | 0.00 | 0.00 | 0.00 | 86 | |
| 20260509080232 | 21 | 44 | 6.4 | 0.0 | 0.00 | 0.00 | 0.00 | 86 | |
| 20260509075232 | 21 | 86 | 6.4 | 0.0 | 0.00 | 0.00 | 0.00 | 86 | |
| 20260509074232 | 21 | 20 | 3.2 | 0.0 | 0.00 | 0.00 | 0.00 | 86 | |
| 20260509073232 | 21 | 20 | 3.2 | 0.0 | 0.00 | 0.00 | 0.00 | 86 | |
| 20260509072232 | 20 | 45 | 8.0 | 0.0 | 0.00 | 0.00 | 0.00 | 86 | |
| 20260509071232 | 20 | 41 | 3.2 | 0.0 | 0.00 | 0.00 | 0.00 | 84 | |
| 20260509070232 | 20 | 41 | 3.2 | 0.0 | 0.00 | 0.00 | 0.00 | 84 | |
| 20260509065232 | 21 | 89 | 3.2 | 0.0 | 0.00 | 0.00 | 0.00 | 83 | |
| 20260509064232 | 21 | 87 | 4.8 | 0.0 | 0.00 | 0.00 | 0.00 | 83 | |
| 20260509063232 | 21 | 87 | 4.8 | 0.0 | 0.00 | 0.00 | 0.00 | 83 | |
| 20260509062232 | 20 | 77 | 6.4 | 0.0 | 0.00 | 0.00 | 0.00 | 83 | |
| 20260509061232 | 20 | 95 | 1.6 | 0.0 | 0.00 | 0.00 | 0.00 | 83 | |
| 20260509060232 | 20 | 95 | 1.6 | 0.0 | 0.00 | 0.00 | 0.00 | 83 | |
| 20260509055232 | 21 | 68 | 3.2 | 0.0 | 0.00 | 0.00 | 0.00 | 81 | |
| 20260509054232 | 21 | 71 | 1.6 | 0.0 | 0.00 | 0.00 | 0.00 | 78 | |
| 20260509053232 | 21 | 71 | 1.6 | 0.0 | 0.00 | 0.00 | 0.00 | 78 | |
| 20260509052232 | 22 | 109 | 1.6 | 0.0 | 0.00 | 0.00 | 0.00 | 75 | |
| 20260509051232 | 22 | 185 | 8.0 | 0.0 | 0.00 | 0.00 | 0.00 | 76 | |
| 20260509050232 | 22 | 185 | 8.0 | 0.0 | 0.00 | 0.00 | 0.00 | 76 | |
| 20260509045232 | 21 | 45 | 1.6 | 0.0 | 0.00 | 0.00 | 0.00 | 76 | |
| 20260509044232 | 21 | 76 | 4.8 | 0.0 | 0.00 | 0.00 | 0.00 | 76 | |
| 20260509043253 | 21 | 76 | 4.8 | 0.0 | 0.00 | 0.00 | 0.00 | 76 | |
| 20260509042232 | 22 | 29 | 3.2 | 0.0 | 0.00 | 0.00 | 0.00 | 74 | |
| 20260509041232 | 22 | 6 | 1.6 | 0.0 | 0.00 | 0.00 | 0.00 | 74 | |
| 20260509040232 | 22 | 6 | 1.6 | 0.0 | 0.00 | 0.00 | 0.00 | 74 | |
| 20260509035253 | 22 | 344 | 11.3 | 0.0 | 0.00 | 0.00 | 0.00 | 74 | |
| 20260509034232 | 22 | 5 | 0.0 | 0.0 | 0.00 | 0.00 | 0.00 | 73 | |
| 20260509033232 | 22 | 5 | 0.0 | 0.0 | 0.00 | 0.00 | 0.00 | 73 | |
| 20260509032232 | 22 | 115 | 0.0 | 0.0 | 0.00 | 0.00 | 0.00 | 73 | |
| 20260509031232 | 22 | 345 | 1.6 | 0.0 | 0.00 | 0.00 | 0.00 | 73 | |
| 20260509030232 | 22 | 345 | 1.6 | 0.0 | 0.00 | 0.00 | 0.00 | 73 | |
| 20260509025253 | 22 | 11 | 3.2 | 0.0 | 0.00 | 0.00 | 0.00 | 73 | |
| 20260509022232 | 22 | 15 | 4.8 | 0.0 | 0.00 | 0.00 | 0.00 | 72 | |
| 20260509021232 | 22 | 46 | 4.8 | 0.0 | 0.00 | 0.00 | 0.00 | 72 | |
| 20260509020238 | 22 | 46 | 4.8 | 0.0 | 0.00 | 0.00 | 0.00 | 72 | |
| 20260509015232 | 22 | 57 | 4.8 | 0.0 | 0.00 | 0.00 | 0.00 | 70 | |
| 20260509014232 | 22 | 14 | 3.2 | 0.0 | 0.00 | 0.00 | 0.00 | 69 | |
| 20260509013232 | 22 | 14 | 3.2 | 0.0 | 0.00 | 0.00 | 0.00 | 69 | |
| 20260509012232 | 22 | 37 | 4.8 | 0.0 | 0.00 | 0.00 | 0.00 | 68 | |
| 20260509011232 | 22 | 30 | 11.3 | 0.0 | 0.00 | 0.00 | 0.00 | 67 | |
| 20260509010232 | 22 | 30 | 11.3 | 0.0 | 0.00 | 0.00 | 0.00 | 67 | |
| 20260509005232 | 22 | 35 | 4.8 | 0.0 | 0.00 | 0.00 | 0.00 | 67 | |
| 20260509002232 | 23 | 50 | 12.9 | 0.0 | 0.00 | 0.00 | 0.00 | 64 | |
| 20260509001232 | 23 | 11 | 8.0 | 0.0 | 0.00 | 0.00 | 0.00 | 63 | |
| 20260509000233 | 23 | 11 | 8.0 | 0.0 | 0.00 | 0.00 | 0.00 | 63 | |
| 20260508235232 | 23 | 58 | 4.8 | 0.0 | 0.00 | 0.00 | 0.00 | 64 | |
| 20260508234232 | 23 | 50 | 8.0 | 0.0 | 0.00 | 0.00 | 0.00 | 62 | |
| 20260508233232 | 23 | 50 | 8.0 | 0.0 | 0.00 | 0.00 | 0.00 | 62 | |
| 20260508232232 | 23 | 21 | 9.7 | 0.0 | 0.00 | 0.00 | 0.00 | 63 | |
| 20260508231232 | 24 | 62 | 6.4 | 0.0 | 0.00 | 0.00 | 0.00 | 61 | |
| 20260508230232 | 24 | 62 | 6.4 | 0.0 | 0.00 | 0.00 | 0.00 | 61 | |
| 20260508225232 | 24 | 82 | 8.0 | 0.0 | 0.00 | 0.00 | 0.00 | 60 | |
| 20260508224232 | 25 | 35 | 4.8 | 0.0 | 0.00 | 0.00 | 0.00 | 58 | |
| 20260508223253 | 25 | 35 | 4.8 | 0.0 | 0.00 | 0.00 | 0.00 | 58 | |
| 20260508222232 | 24 | 83 | 8.0 | 0.0 | 0.00 | 0.00 | 0.00 | 60 | |
| 20260508221253 | 25 | 42 | 8.0 | 0.0 | 0.00 | 0.00 | 0.00 | 59 | |
| 20260508220232 | 25 | 42 | 8.0 | 0.0 | 0.00 | 0.00 | 0.00 | 59 | |
| 20260508215232 | 24 | 38 | 11.3 | 0.0 | 0.00 | 0.00 | 0.00 | 59 | |
| 20260508214232 | 24 | 342 | 9.7 | 0.0 | 0.00 | 0.00 | 0.00 | 57 | |
| 20260508213232 | 24 | 342 | 9.7 | 0.0 | 0.00 | 0.00 | 0.00 | 57 | |
| 20260508212232 | 24 | 36 | 6.4 | 0.0 | 0.00 | 0.00 | 0.00 | 60 | |
| 20260508211232 | 24 | 47 | 8.0 | 0.0 | 0.00 | 0.00 | 0.00 | 59 | |
| 20260508210232 | 24 | 47 | 8.0 | 0.0 | 0.00 | 0.00 | 0.00 | 59 | |
| 20260508205232 | 23 | 65 | 4.8 | 0.0 | 0.00 | 0.00 | 0.00 | 61 | |
| 20260508204232 | 23 | 62 | 8.0 | 0.0 | 0.00 | 0.00 | 0.00 | 60 | |
| 20260508203232 | 23 | 62 | 8.0 | 0.0 | 0.00 | 0.00 | 0.00 | 60 | |
| 20260508202232 | 23 | 93 | 11.3 | 0.0 | 0.00 | 0.00 | 0.00 | 59 | |
| 20260508201232 | 24 | 90 | 4.8 | 0.0 | 0.00 | 0.00 | 0.00 | 56 | |
| 20260508200232 | 24 | 90 | 4.8 | 0.0 | 0.00 | 0.00 | 0.00 | 56 | |
| 20260508195253 | 25 | 65 | 1.6 | 0.0 | 0.00 | 0.00 | 0.00 | 57 | |
| 20260508194253 | 25 | 26 | 11.3 | 0.0 | 0.00 | 0.00 | 0.00 | 54 | |
| 20260508193232 | 25 | 26 | 11.3 | 0.0 | 0.00 | 0.00 | 0.00 | 54 | |
| 20260508192232 | 25 | 72 | 6.4 | 0.0 | 0.00 | 0.00 | 0.00 | 54 | |
| 20260508191232 | 25 | 89 | 6.4 | 0.0 | 0.00 | 0.00 | 0.00 | 53 | |
| 20260508190232 | 25 | 89 | 6.4 | 0.0 | 0.00 | 0.00 | 0.00 | 53 | |
| 20260508185232 | 25 | 2 | 3.2 | 0.0 | 0.00 | 0.00 | 0.00 | 54 | |
| 20260508184232 | 24 | 68 | 9.7 | 0.0 | 0.00 | 0.00 | 0.00 | 53 | |
| 20260508183232 | 24 | 68 | 9.7 | 0.0 | 0.00 | 0.00 | 0.00 | 53 | |
| 20260508182232 | 24 | 37 | 6.4 | 0.0 | 0.00 | 0.00 | 0.00 | 52 | |
| 20260508181253 | 23 | 76 | 3.2 | 0.0 | 0.00 | 0.00 | 0.00 | 56 | |
| 20260508180232 | 23 | 76 | 3.2 | 0.0 | 0.00 | 0.00 | 0.00 | 56 | |
| 20260508175232 | 23 | 51 | 8.0 | 0.0 | 0.00 | 0.00 | 0.00 | 58 | |
| 20260508174232 | 22 | 57 | 1.6 | 0.0 | 0.00 | 0.00 | 0.00 | 58 | |
| 20260508173253 | 22 | 57 | 1.6 | 0.0 | 0.00 | 0.00 | 0.00 | 58 | |
| 20260508172253 | 21 | 354 | 6.4 | 0.0 | 0.00 | 0.00 | 0.00 | 58 | |
| 20260508171232 | 21 | 71 | 3.2 | 0.0 | 0.00 | 0.00 | 0.00 | 58 | |
| 20260508170232 | 21 | 71 | 3.2 | 0.0 | 0.00 | 0.00 | 0.00 | 58 | |
| 20260508165232 | 21 | 33 | 8.0 | 0.0 | 0.00 | 0.00 | 0.00 | 57 | |
| 20260508162236 | 20 | 40 | 3.2 | 0.0 | 0.00 | 0.00 | 0.00 | 64 | |
| 20260508161232 | 20 | 40 | 3.2 | 0.0 | 0.00 | 0.00 | 0.00 | 64 | |
| 20260508160232 | 20 | 40 | 3.2 | 0.0 | 0.00 | 0.00 | 0.00 | 64 | |
| 20260508155232 | 19 | 37 | 8.0 | 0.0 | 0.00 | 0.00 | 0.00 | 64 | |
| 20260508154232 | 19 | 33 | 3.2 | 0.0 | 0.00 | 0.00 | 0.00 | 65 | |
| 20260508153232 | 19 | 33 | 3.2 | 0.0 | 0.00 | 0.00 | 0.00 | 65 | |
| 20260508152232 | 20 | 80 | 4.8 | 0.0 | 0.00 | 0.00 | 0.00 | 66 | |
| 20260508151232 | 18 | 38 | 4.8 | 0.0 | 0.00 | 0.00 | 0.00 | 68 | |
| 20260508150253 | 18 | 38 | 4.8 | 0.0 | 0.00 | 0.00 | 0.00 | 68 | |
| 20260508145253 | 18 | 25 | 6.4 | 0.0 | 0.00 | 0.00 | 0.00 | 74 | |
| 20260508144232 | 17 | 17 | 1.6 | 0.0 | 0.00 | 0.00 | 0.00 | 76 | |
| 20260508143232 | 17 | 17 | 1.6 | 0.0 | 0.00 | 0.00 | 0.00 | 76 | |
| 20260508142232 | 17 | 6 | 4.8 | 0.0 | 0.00 | 0.00 | 0.00 | 76 | |
| 20260508141253 | 17 | 38 | 1.6 | 0.0 | 0.00 | 0.00 | 0.00 | 79 | |
| 20260508140232 | 17 | 38 | 1.6 | 0.0 | 0.00 | 0.00 | 0.00 | 79 | |
| 20260508135232 | 17 | 330 | 1.6 | 0.0 | 0.00 | 0.00 | 0.00 | 82 | |
| 20260508134232 | 16 | 329 | 1.6 | 0.0 | 0.00 | 0.00 | 0.00 | 85 | |
| 20260508133232 | 16 | 329 | 1.6 | 0.0 | 0.00 | 0.00 | 0.00 | 85 | |
| 20260508132232 | 16 | 35 | 1.6 | 0.0 | 0.00 | 0.00 | 0.00 | 85 | |
| 20260508131232 | 16 | 16 | 1.6 | 0.0 | 0.00 | 0.00 | 0.00 | 85 | |
| 20260508130232 | 16 | 16 | 1.6 | 0.0 | 0.00 | 0.00 | 0.00 | 85 | |
| 20260508125232 | 16 | 26 | 1.6 | 0.0 | 0.00 | 0.00 | 0.00 | 87 | |
| 20260508124232 | 16 | 36 | 4.8 | 0.0 | 0.00 | 0.00 | 0.00 | 88 | |
| 20260508123253 | 16 | 36 | 4.8 | 0.0 | 0.00 | 0.00 | 0.00 | 88 | |
| 20260508122232 | 15 | 5 | 6.4 | 0.0 | 0.00 | 0.00 | 0.00 | 94 | |
| 20260508121232 | 15 | 156 | 1.6 | 0.0 | 0.00 | 0.00 | 0.00 | 97 | |
| 20260508120232 | 15 | 156 | 1.6 | 0.0 | 0.00 | 0.00 | 0.00 | 97 | |
| 20260508115232 | 15 | 135 | 0.0 | 0.0 | 0.00 | 0.00 | 0.00 | 97 | |
| 20260508114232 | 15 | 22 | 3.2 | 0.0 | 0.00 | 0.00 | 0.00 | 98 | |
| 20260508113232 | 15 | 22 | 3.2 | 0.0 | 0.00 | 0.00 | 0.00 | 98 | |
| 20260508112232 | 15 | 82 | 1.6 | 0.0 | 0.00 | 0.00 | 0.00 | 98 | |
| 20260508111232 | 15 | 2 | 6.4 | 0.0 | 0.00 | 0.00 | 0.00 | 91 | |
| 20260508110232 | 15 | 2 | 6.4 | 0.0 | 0.00 | 0.00 | 0.00 | 91 | |
| 20260508105232 | 15 | 108 | 0.0 | 0.0 | 0.00 | 0.00 | 0.00 | 89 | |
| 20260508104232 | 15 | 46 | 6.4 | 0.0 | 0.00 | 0.00 | 0.00 | 86 | |
| 20260508103232 | 15 | 46 | 6.4 | 0.0 | 0.00 | 0.00 | 0.00 | 86 | |
| 20260508102253 | 16 | 71 | 3.2 | 0.0 | 0.00 | 0.00 | 0.00 | 83 | |
| 20260508101232 | 16 | 28 | 1.6 | 0.0 | 0.00 | 0.00 | 0.00 | 83 | |
| 20260508100232 | 16 | 28 | 1.6 | 0.0 | 0.00 | 0.00 | 0.00 | 83 | |
| 20260508095232 | 16 | 49 | 1.6 | 0.0 | 0.00 | 0.00 | 0.00 | 85 | |
| 20260508094232 | 16 | 23 | 4.8 | 0.0 | 0.00 | 0.00 | 0.00 | 87 | |
| 20260508093232 | 16 | 23 | 4.8 | 0.0 | 0.00 | 0.00 | 0.00 | 87 | |
| 20260508092232 | 16 | 53 | 3.2 | 0.0 | 0.00 | 0.00 | 0.00 | 86 | |
| 20260508091232 | 15 | 168 | 0.0 | 0.0 | 0.00 | 0.00 | 0.00 | 86 |